Location: Newark
(14.9306°N, 3.4333°E)
Time: 13:37:01
(UTC+00:00)

First-Move - Pass Details

Date: 14 December 2019
Orbit: 576 x 669 km, 97.6° (Epoch: 21 January)

Event Time Altitude Azimuth Distance (km) Brightness Sun altitude
Rises 18:21:45 0° 200° (SSW) 3,001 ? -15.0°
Reaches altitude 10° 18:24:37 10° 219° (SW) 2,086 ? -15.7°
Maximum altitude 18:27:41 18° 261° (W) 1,617 ? -16.4°
Drops below altitude 10° 18:30:45 10° 304° (NW) 2,071 ? -17.0°
Sets 18:33:36 0° 323° (NW) 2,970 ? -17.7°
